This is the latest recevied weather packets stored in our database for station/object KC3UTO. If no packets are shown the sender has not sent any weather packets the latest 10 day(s).
| Time | Temp. | Humidity | Pressure | Rain* | Wind** | Luminosity | Snow |
|---|---|---|---|---|---|---|---|
| 1777417785 | 15° C | 55% | 1017.3 hPa | 0 mm | - | 17 W/m² | - |
| 1777417481 | 15° C | 54% | 1017.4 hPa | 0 mm | - | 20 W/m² | - |
| 1777417178 | 15° C | 53% | 1017.4 hPa | 0 mm | - | 22 W/m² | - |
| 1777416873 | 15° C | 52% | 1017.4 hPa | 0 mm | - | 21 W/m² | - |
| 1777416569 | 15° C | 52% | 1017.2 hPa | 0 mm | - | 28 W/m² | - |
| 1777416266 | 15° C | 53% | 1017.2 hPa | 0 mm | - | 37 W/m² | - |
| 1777415964 | 15° C | 51% | 1017.4 hPa | 0 mm | - | 48 W/m² | - |
| 1777415660 | 15.56° C | 50% | 1017.5 hPa | 0 mm | - | 52 W/m² | - |
| 1777415356 | 15.56° C | 51% | 1017.4 hPa | 0 mm | - | 60 W/m² | - |
| 1777415051 | 15.56° C | 50% | 1017.5 hPa | 0 mm | - | 51 W/m² | - |
| 1777414750 | 15.56° C | 52% | 1017.5 hPa | 0 mm | - | 44 W/m² | - |
| 1777414447 | 15.56° C | 52% | 1017.3 hPa | 0 mm | - | 46 W/m² | - |
| 1777414145 | 15.56° C | 49% | 1017.4 hPa | 0 mm | - | 56 W/m² | - |
| 1777413841 | 15.56° C | 50% | 1017.5 hPa | 0 mm | - | 66 W/m² | - |
| 1777413537 | 15.56° C | 50% | 1017.6 hPa | 0 mm | - | 56 W/m² | - |
| 1777413233 | 15.56° C | 49% | 1017.6 hPa | 0 mm | - | 58 W/m² | - |
| 1777412929 | 15.56° C | 49% | 1017.5 hPa | 0 mm | - | 76 W/m² | - |
| 1777412628 | 15.56° C | 50% | 1017.4 hPa | 0 mm | - | 58 W/m² | - |
| 1777412325 | 15.56° C | 49% | 1017.4 hPa | 0 mm | - | 61 W/m² | - |
| 1777412020 | 15.56° C | 49% | 1017.4 hPa | 0 mm | - | 79 W/m² | - |
| 1777411719 | 15.56° C | 50% | 1017.4 hPa | 0 mm | - | 92 W/m² | - |
| 1777411415 | 15.56° C | 49% | 1017.4 hPa | 0 mm | - | 71 W/m² | - |
| 1777411115 | 15.56° C | 49% | 1017.4 hPa | 0 mm | - | 76 W/m² | - |
| 1777410815 | 15.56° C | 49% | 1017.5 hPa | 0 mm | - | 75 W/m² | - |
| 1777410514 | 15.56° C | 51% | 1017.4 hPa | 0 mm | - | 100 W/m² | - |
* Rain latest hour (hover to see other rain measurements)
** Current wind speed in m/s (hover to see current wind gust speed)